[Date Prev][Date Next][Thread Prev][Thread Next] - [Date Index][Thread Index][Author Index]

ISS-STS-118 KEPS DAY 230



ISS (ZARYA)             
1 25544U 98067A   07230.84277824  .00009281  00000-0  62024-4 0  8081
2 25544  51.6346 140.4184 0008108 260.5057 218.6394 15.76151524500668
STS 118                 
1 32008U 07035A   07230.50349537  .00008912  00000-0  59748-4 0   208
2 32008  51.6349 142.1671 0008082 258.7259  93.9758 15.76143103  1509

----
Sent via sarex@amsat.org. Opinions expressed are those of the author.
Not an AMSAT member? Join now to support the amateur satellite program!
Subscription settings: http://amsat.org/mailman/listinfo/sarex



AMSAT Top AMSAT Home